User: anonymous   Login
Location: *
(2.5500°S, 65.9667°W)
Time: 12:16:00
(UTC+00:00)
Language:

GPS 2-15 Rocket1 - Orbit

View from above orbital plane
View from above orbital plane
View from above satellite
View from above satellite

Ground track
Ground track

The orbit data is extracted from the following two-line orbital elements,

1 22109U 92058B   22026.01272437  .00000733  00000-0  53360-4 0  9990
2 22109  19.7819 264.6594 0036535  31.5366 328.7229 14.73789982579005
Epoch (UTC): 26 January 2022 00:18:19
Eccentricity: 0.0036535
inclination: 19.7819°
perigee height: 623 km
apogee height: 674 km
right ascension of ascending node: 264.6594°
argument of perigee: 31.5366°
revolutions per day: 14.73789982
mean anomaly at epoch: 328.7229°
orbit number at epoch: 57900

The dashed part of the orbit path shows where the satellite is in the earth's shadow,  

DLR